www.pogodaiklimat.ru

Погода и климат >> Архив погоды >> Пакистан >> Sibi


ПОГОДА в Sibi

  • Прогноз погоды в Sibi
  • Монитор погоды в Sibi
  • Климат города

АРХИВ ПОГОДЫ в Sibi

Время (UTC), дата Ветер
(напр.,м/с)
 
Видим.   Явления Облачность Т
(С)
Тd
(С)
f
(%)
Тe
(С)
Тes
(С)
Комфортность P
(гПа)
Po
(гПа)
Тmin
(С)
Tmax
(С)
R
(мм)
R24
(мм)
S
(см)
12 19.09 штиль 0 10 км ясно +40.6 +23.7 38 +51 +54 опасность
перегрева
1000.0 985.8 +42.1
15 19.09 штиль 0 4000 м ясно +37.8 +23.1 43 +47 +47 опасность
перегрева
1000.7 1000.0
18 19.09 штиль 0 4000 м ясно +34.4 +23.1 52 +45 +45 опасность
перегрева
1003.1 1000.0
21 19.09 штиль 0 4000 м ясно +32.2 +21.8 54 +41 +41 опасность
перегрева
1002.3 1000.0
00 20.09 штиль 0 4000 м ясно +30.0 +22.0 62 +39 +39 очень
душно
1001.5 986.7
03 20.09 штиль 0 50 км ?/? +22.9 1008.0 991.1
06 20.09 штиль 0 10 км ясно +36.1 +24.0 50 +48 +67 опасность
перегрева
1005.5 1000.0
09 20.09 штиль 0 10 км ясно +38.3 +24.6 46 +51 +70 опасность
перегрева
1002.8 1000.0
12 20.09 штиль 0 10 км ясно +40.0 +24.8 42 +52 +55 опасность
перегрева
1000.5 1000.0 +41.1
15 20.09 штиль 0 4000 м ясно +37.2 +23.6 46 +48 +48 опасность
перегрева
1002.2 1000.0
18 20.09 штиль 0 4000 м ясно +33.9 +24.1 57 +46 +46 опасность
перегрева
1004.2 1000.0
21 20.09 штиль 0 4000 м ясно +32.2 +23.4 60 +43 +43 опасность
перегрева
1003.4 1003.0
00 21.09 штиль 0 4000 м ясно +29.4 +23.0 68 +39 +39 очень
душно
1002.7 987.8
21 21.09 штиль 0 4000 м ясно +31.7 +22.6 59 +41 +41 опасность
перегрева
1005.2 1000.0
00 22.09 штиль 0 4000 м ясно +31.7 +22.6 59 +41 +41 опасность
перегрева
1005.2 1000.0
03 22.09 штиль 0 10 км ясно +33.9 +23.3 54 +44 +48 опасность
перегрева
1005.7 990.7 +24.1
06 22.09 ЮЗ 1 10 км ясно +36.7 +23.0 45 +46 +62 опасность
перегрева
1008.4 1000.0
09 22.09 штиль 0 10 км ясно +38.3 +23.8 44 +49 +68 опасность
перегрева
1006.1 1000.0
12 22.09 ЮВ 1 10 км ясно +40.0 +23.9 40 +51 +53 опасность
перегрева
1003.1 1000.0 +41.1
15 22.09 штиль 0 4000 м ясно +37.2 +23.4 45 +47 +47 опасность
перегрева
1004.4 1000.0
18 22.09 штиль 0 4000 м ясно +33.9 +21.6 49 +42 +42 опасность
перегрева
1006.5 1000.0
21 22.09 штиль 0 4000 м ясно +31.7 +21.2 54 +39 +39 очень
душно
1005.7 1000.0
00 23.09 штиль 0 4000 м ясно +29.4 +21.4 62 +37 +37 очень
душно
1004.6 989.7
03 23.09 штиль 0 10 км ясно +32.2 +22.6 57 +42 +45 опасность
перегрева
1007.0 992.0 +23.5
06 23.09 штиль 0 10 км ясно +35.0 +22.9 50 +45 +64 опасность
перегрева
1009.1 1000.0
09 23.09 штиль 0 10 км ясно +37.2 +7.7 17 +47 +65 опасность
перегрева
1005.7 1000.0
12 23.09 штиль 0 50 км ?/? +29.0 -0.1 15
15 23.09 штиль 0 4000 м ясно +36.7 +22.1 43 +45 +45 опасность
перегрева
1004.4 1000.0
03 24.09 штиль 0 10 км ясно +31.1 +23.1 63 +42 +45 опасность
перегрева
1006.9 991.9 +21.1
06 24.09 штиль 0 10 км ясно +33.9 +24.1 57 +46 +64 опасность
перегрева
1008.3 1000.0
09 24.09 штиль 0 10 км ясно +36.7 +23.8 48 +48 +66 опасность
перегрева
1005.9 1000.0
12 24.09 штиль 0 10 км ясно +38.9 +23.5 42 +49 +52 опасность
перегрева
1003.3 1000.0 +41.1
15 24.09 ЮВ 1 4000 м ясно +36.1 +22.4 45 +45 +45 опасность
перегрева
1004.2 1000.0
18 24.09 штиль 0 4000 м ясно +31.7 +22.0 56 +40 +40 очень
душно
1005.8 1000.0
21 24.09 штиль 0 4000 м ясно +29.4 +21.4 62 +37 +37 очень
душно
1004.7 1005.0
00 25.09 штиль 0 4000 м ясно +27.2 +20.2 66 +34 +34 очень
душно
1004.0 989.0
03 25.09 штиль 0 50 км ?/? +21.7 1007.0 997.2
06 25.09 штиль 0 10 км ясно +33.9 +23.3 54 +44 +63 опасность
перегрева
1007.8 1008.0
09 25.09 штиль 0 10 км ясно +36.1 +22.4 45 +45 +63 опасность
перегрева
1005.5 1000.0
12 25.09 штиль 0 10 км ясно +39.4 +23.3 40 +49 +52 опасность
перегрева
1002.7 988.4 +41.1
15 25.09 штиль 0 4000 м ясно +37.2 +21.9 41 +45 +45 опасность
перегрева
1003.6 1000.0
18 25.09 штиль 0 4000 м ясно +32.8 +23.0 56 +43 +43 опасность
перегрева
1005.7 1006.0
21 25.09 штиль 0 4000 м ясно +30.6 +21.7 59 +39 +39 очень
душно
1005.2 1000.0
00 26.09 штиль 0 4000 м ясно +28.4 +21.9 68 +37 +37 очень
душно
1004.3 989.4
03 26.09 штиль 0 10 км ясно +31.7 +22.0 56 +40 +43 очень
душно
1006.0 991.0 +19.1
06 26.09 штиль 0 10 км ясно +34.4 +23.1 52 +45 +63 опасность
перегрева
1007.1 1000.0

 

Местоположение метеостанции Sibi (Пакистан): широта 29.55 долгота 67.88 высота над уровнем моря 134 м.

В архиве по умолчанию представлена погода в Sibi за последнюю неделю. Архивные данные за месяц целиком и за предыдущие месяцы, начиная с января 2011 года, Вы можете получить, выбрав интересующий диапазон дат из раскрывающегося списка и нажав кнопку "Ввод!".


*Определитесь, кто Вы:
робот инопланетянин человек

Внимание! Время в таблицах - всемирное. Для получения местного времени необходимо прибавить поправку, которая в Sibi равна 5 ч.

Смотрите также архив погоды в соседних городах и на ближайших метеорологических станциях:

Погода в Quetta Airport (Пакистан) (124 км)
Погода в Kalat (Пакистан) (139 км)
Погода в Jacobabad (Пакистан) (150 км)
Погода в Barkhan (Пакистан) (181 км)
Погода в Khuzdar (Пакистан) (227 км)
Погода в Rohri (Пакистан) (232 км)
Погода в Zhob (Пакистан) (252 км)
Погода в Khanpur (Пакистан) (290 км)
Погода в Kandahar (Афганистан) (292 км)
Погода в Pad Idan (Пакистан) (301 км)

Пояснения к столбцам:

Ветер - указаны скорость ветра в м/с - средняя за 10 мин, порывы в срок и между сроками (в фигурных скобках) и направление, откуда дует ветер: С - северный, СВ - северо-восточный, В - восточный, ЮВ - юго-восточный, Ю - южный, ЮЗ - юго-западный, З - западный, СЗ - северо-западный.
Видимость - горизонтальная дальность видимости в метрах или километрах. При видимости от 1 до 10 км при отсутствии осадков обычно наблюдается дымка, при ухудшении видимости до 1 км и менее - туман. В сухую погоду видимость может ухудшаться дымом, пылью или мглою.
Явления - указаны атмосферные явления, наблюдавшиеся в срок или в последний час перед сроком; фигурными скобками обозначены явления, наблюдавшиеся между сроками (за 1-3 часа до срока); квадратными скобками обозначены град или гололедные отложения с указанием их диаметра в мм.
Облачность - указаны через наклонную черту общая и нижняя облачность в баллах и высота нижней границы облаков в метрах; квадратными скобками обозначены формы облаков: Ci - перистые, Cs - перисто-слоистые, Cc - перисто-кучевые, Ac - высококучевые, As - высокослоистые, Sc - слоисто-кучевые, Ns - слоисто-дождевые, Cu - кучевые, Cb - кучево-дождевые. Подробнее классификацию облаков см. в Атласе облаков (PDF).
T - Температура воздуха - температура, измеренная на высоте 2 м над землей.
Td - Температура точки росы - температура, при понижении до которой содержащийся в воздухе водяной пар достигнет насыщения.
f - Относительная влажность воздуха - влажноcть воздуха, измеренная на высоте 2 м над землей.
Te - Эффективная температура - температура, которую ощущает одетый по сезону человек в тени. Характеристика душности погоды. При расчете учитывается влияние влажности воздуха и скорости ветра на теплоощущения человека.
Tes - Эффективная температура на солнце - температура, которую ощущает человек, с поправкой на солнечный нагрев. Характеристика знойности погоды. Зависит от высоты солнца над горизонтом, облачности и скорости ветра. Ночью, в пасмурную погоду, а также при ветре 12 м/с и более поправка равна нулю.
P - Атмосферное давление - приведенное к уровню моря атмосферное давление.
Po - Атмосферное давление - измеренное на уровне метеостанции атмосферное давление.
Tmin - Минимальная температура - минимум температуры воздуха на высоте 2 м над землей.
Tmax - Максимальная температура - максимум температуры воздуха на высоте 2 м над землей.
R - Количество осадков - Количество выпавших осадков за период времени, мм. При наведении курсора мыши на число - период времени, за который выпало указанное количество осадков.
R24 - Количество осадков - Количество выпавших осадков за 24 часа, мм.
S - Снежный покров - Высота снежного покрова, см. При наведении курсора мыши на число - состояние снежного покрова и степень покрытия местности в баллах.